| time (UTC) | temp F | wind direction | speed MPH | gust MPH | rain 1hr in | rain 24hr in | rain mn in | humidity % | barometer mb |
| 20260905220038 | 61 | 253 | 0.0 | 0.0 | 0.00 | 0.06 | 0.00 | 85 | 1029.2 |
| 20260905215538 | 61 | 253 | 0.0 | 0.0 | 0.00 | 0.06 | 0.06 | 85 | 1029.2 |
| 20260905215038 | 61 | 253 | 0.0 | 0.0 | 0.00 | 0.06 | 0.06 | 85 | 1029.1 |
| 20260905214544 | 61 | 253 | 0.0 | 0.0 | 0.00 | 0.06 | 0.06 | 85 | 1029.1 |
| 20260905214037 | 61 | 253 | 0.0 | 0.0 | 0.00 | 0.06 | 0.06 | 84 | 1029.1 |
| 20260905213537 | 61 | 253 | 0.0 | 0.0 | 0.00 | 0.06 | 0.06 | 84 | 1029.1 |
| 20260905213038 | 61 | 253 | 0.0 | 0.0 | 0.00 | 0.06 | 0.06 | 84 | 1029.0 |
| 20260905212537 | 61 | 253 | 0.0 | 0.0 | 0.00 | 0.06 | 0.06 | 84 | 1028.9 |
| 20260905212034 | 62 | 253 | 0.0 | 0.0 | 0.00 | 0.06 | 0.06 | 83 | 1028.9 |
| 20260905211543 | 62 | 253 | 0.0 | 0.0 | 0.00 | 0.06 | 0.06 | 83 | 1028.9 |
| 20260905211035 | 62 | 253 | 0.0 | 0.0 | 0.00 | 0.06 | 0.06 | 82 | 1028.8 |
| 20260905210534 | 62 | 253 | 0.0 | 0.0 | 0.00 | 0.06 | 0.06 | 82 | 1028.7 |
| 20260905210042 | 62 | 253 | 0.0 | 0.0 | 0.00 | 0.06 | 0.06 | 82 | 1028.8 |
| 20260905205534 | 62 | 253 | 0.0 | 0.0 | 0.00 | 0.06 | 0.06 | 82 | 1028.8 |
| 20260905205037 | 62 | 253 | 0.0 | 0.0 | 0.00 | 0.06 | 0.06 | 82 | 1028.8 |
| 20260905204537 | 62 | 253 | 0.0 | 0.0 | 0.00 | 0.06 | 0.06 | 82 | 1028.8 |
| 20260905204038 | 62 | 253 | 0.0 | 3.0 | 0.00 | 0.06 | 0.06 | 82 | 1028.8 |
| 20260905203534 | 62 | 277 | 0.0 | 3.0 | 0.00 | 0.06 | 0.06 | 82 | 1028.7 |
| 20260905203034 | 62 | 122 | 1.0 | 5.0 | 0.00 | 0.06 | 0.06 | 82 | 1028.7 |
| 20260905202533 | 62 | 276 | 3.0 | 5.0 | 0.00 | 0.06 | 0.06 | 82 | 1028.9 |
| 20260905202032 | 62 | 138 | 1.0 | 4.0 | 0.00 | 0.06 | 0.06 | 82 | 1028.6 |
| 20260905201532 | 62 | 160 | 0.0 | 0.0 | 0.00 | 0.06 | 0.06 | 82 | 1028.8 |
| 20260905201031 | 62 | 160 | 0.0 | 2.0 | 0.00 | 0.06 | 0.06 | 82 | 1028.7 |
| 20260905200531 | 63 | 160 | 0.0 | 2.0 | 0.00 | 0.06 | 0.06 | 81 | 1028.7 |
| 20260905200033 | 63 | 160 | 0.0 | 3.0 | 0.00 | 0.06 | 0.06 | 81 | 1028.7 |
| 20260905195531 | 63 | 160 | 0.0 | 3.0 | 0.00 | 0.06 | 0.06 | 81 | 1028.5 |
| 20260905195033 | 63 | 160 | 0.0 | 3.0 | 0.00 | 0.06 | 0.06 | 80 | 1028.5 |
| 20260905194529 | 63 | 160 | 0.0 | 4.0 | 0.00 | 0.06 | 0.06 | 80 | 1028.5 |
| 20260905194029 | 63 | 127 | 1.0 | 5.0 | 0.00 | 0.06 | 0.06 | 80 | 1028.5 |
| 20260905193527 | 63 | 115 | 2.0 | 5.0 | 0.00 | 0.06 | 0.06 | 81 | 1028.4 |
| 20260905193027 | 62 | 178 | 0.0 | 0.0 | 0.00 | 0.06 | 0.06 | 81 | 1028.4 |
| 20260905192527 | 63 | 177 | 0.0 | 0.0 | 0.00 | 0.06 | 0.06 | 80 | 1028.2 |
| 20260905192025 | 63 | 177 | 0.0 | 2.0 | 0.00 | 0.06 | 0.06 | 80 | 1028.3 |
| 20260905191524 | 63 | 177 | 0.0 | 2.0 | 0.00 | 0.06 | 0.06 | 80 | 1028.3 |
| 20260905191023 | 63 | 177 | 0.0 | 2.0 | 0.00 | 0.06 | 0.06 | 80 | 1028.3 |
| 20260905190524 | 63 | 177 | 0.0 | 3.0 | 0.00 | 0.06 | 0.06 | 79 | 1028.2 |
| 20260905190023 | 63 | 177 | 0.0 | 3.0 | 0.00 | 0.06 | 0.06 | 79 | 1028.2 |
| 20260905185523 | 63 | 177 | 0.0 | 2.0 | 0.00 | 0.06 | 0.06 | 79 | 1028.0 |
| 20260905185021 | 63 | 161 | 0.0 | 4.0 | 0.00 | 0.06 | 0.06 | 79 | 1028.0 |
| 20260905184528 | 63 | 161 | 2.0 | 4.0 | 0.00 | 0.06 | 0.06 | 78 | 1027.9 |
| 20260905184020 | 63 | 173 | 1.0 | 3.0 | 0.00 | 0.06 | 0.06 | 78 | 1027.8 |
| 20260905183520 | 63 | 173 | 1.0 | 2.0 | 0.00 | 0.06 | 0.06 | 79 | 1027.8 |
| 20260905183021 | 63 | 172 | 0.0 | 4.0 | 0.00 | 0.06 | 0.06 | 78 | 1027.6 |
| 20260905182519 | 63 | 172 | 0.0 | 4.0 | 0.00 | 0.06 | 0.06 | 79 | 1027.5 |
| 20260905182017 | 63 | 237 | 0.0 | 0.0 | 0.00 | 0.06 | 0.06 | 79 | 1027.5 |
| 20260905181518 | 63 | 237 | 0.0 | 3.0 | 0.00 | 0.06 | 0.06 | 78 | 1027.4 |
| 20260905181016 | 63 | 237 | 1.0 | 5.0 | 0.00 | 0.06 | 0.06 | 78 | 1027.4 |
| 20260905180520 | 63 | 258 | 1.0 | 5.0 | 0.00 | 0.06 | 0.06 | 77 | 1027.3 |
| 20260905180015 | 64 | 155 | 1.0 | 4.0 | 0.00 | 0.06 | 0.06 | 77 | 1027.2 |
| 20260905175515 | 64 | 156 | 0.0 | 3.0 | 0.00 | 0.06 | 0.06 | 77 | 1027.1 |
| 20260905175015 | 64 | 156 | 0.0 | 0.0 | 0.00 | 0.06 | 0.06 | 77 | 1027.1 |
| 20260905174515 | 64 | 156 | 0.0 | 2.0 | 0.00 | 0.06 | 0.06 | 77 | 1027.0 |
| 20260905174015 | 64 | 156 | 0.0 | 3.0 | 0.00 | 0.06 | 0.06 | 76 | 1027.1 |
| 20260905173515 | 64 | 156 | 0.0 | 4.0 | 0.00 | 0.06 | 0.06 | 77 | 1027.1 |
| 20260905173014 | 64 | 158 | 2.0 | 3.0 | 0.00 | 0.06 | 0.06 | 77 | 1027.0 |
| 20260905172514 | 64 | 158 | 0.0 | 3.0 | 0.00 | 0.06 | 0.06 | 76 | 1027.2 |
| 20260905172015 | 64 | 158 | 0.0 | 5.0 | 0.00 | 0.06 | 0.06 | 76 | 1027.1 |
| 20260905171513 | 64 | 164 | 3.0 | 5.0 | 0.00 | 0.06 | 0.06 | 76 | 1027.0 |
| 20260905171012 | 65 | 163 | 1.0 | 5.0 | 0.00 | 0.06 | 0.06 | 76 | 1027.0 |
| 20260905170512 | 65 | 158 | 2.0 | 5.0 | 0.00 | 0.06 | 0.06 | 75 | 1026.9 |
| 20260905170012 | 65 | 156 | 2.0 | 4.0 | 0.00 | 0.06 | 0.06 | 75 | 1026.9 |
| 20260905165511 | 65 | 157 | 0.0 | 4.0 | 0.00 | 0.06 | 0.06 | 75 | 1026.9 |
| 20260905165011 | 65 | 157 | 3.0 | 4.0 | 0.00 | 0.06 | 0.06 | 74 | 1026.9 |
| 20260905164515 | 65 | 156 | 0.0 | 0.0 | 0.00 | 0.06 | 0.06 | 74 | 1026.7 |
| 20260905164010 | 65 | 156 | 0.0 | 3.0 | 0.00 | 0.06 | 0.06 | 73 | 1026.8 |
| 20260905163510 | 66 | 156 | 1.0 | 3.0 | 0.00 | 0.06 | 0.06 | 74 | 1026.7 |
| 20260905163127 | 66 | 156 | 0.0 | 2.0 | 0.00 | 0.06 | 0.06 | 73 | 1026.8 |
| 20260905162511 | 66 | 156 | 0.0 | 2.0 | 0.00 | 0.06 | 0.06 | 72 | 1026.7 |
| 20260905162010 | 66 | 172 | 0.0 | 2.0 | 0.00 | 0.06 | 0.06 | 72 | 1026.6 |
| 20260905161509 | 67 | 172 | 0.0 | 2.0 | 0.00 | 0.06 | 0.06 | 72 | 1026.6 |
| 20260905161009 | 67 | 172 | 0.0 | 0.0 | 0.00 | 0.06 | 0.06 | 71 | 1026.4 |
| 20260905160509 | 67 | 172 | 0.0 | 0.0 | 0.00 | 0.06 | 0.06 | 71 | 1026.5 |
| 20260905160109 | 67 | 172 | 0.0 | 0.0 | 0.00 | 0.06 | 0.06 | 74 | 1026.4 |
| 20260905155509 | 67 | 172 | 0.0 | 0.0 | 0.00 | 0.06 | 0.06 | 71 | 1026.4 |
| 20260905155008 | 67 | 172 | 0.0 | 0.0 | 0.00 | 0.06 | 0.06 | 71 | 1026.4 |
| 20260905154511 | 67 | 172 | 0.0 | 0.0 | 0.00 | 0.06 | 0.06 | 72 | 1026.4 |
| 20260905154109 | 66 | 172 | 0.0 | 0.0 | 0.00 | 0.06 | 0.06 | 71 | 1026.4 |
| 20260905153508 | 66 | 172 | 0.0 | 2.0 | 0.00 | 0.06 | 0.06 | 70 | 1026.4 |
| 20260905153015 | 66 | 172 | 0.0 | 2.0 | 0.00 | 0.06 | 0.06 | 70 | 1026.4 |
| 20260905152508 | 66 | 172 | 0.0 | 0.0 | 0.00 | 0.06 | 0.06 | 72 | 1026.5 |
| 20260905152009 | 66 | 172 | 0.0 | 0.0 | 0.00 | 0.06 | 0.06 | 72 | 1026.4 |
| 20260905151517 | 66 | 172 | 0.0 | 0.0 | 0.00 | 0.06 | 0.06 | 71 | 1026.5 |
| 20260905151006 | 66 | 172 | 0.0 | 1.0 | 0.00 | 0.06 | 0.06 | 71 | 1026.4 |
| 20260905150507 | 66 | 172 | 0.0 | 2.0 | 0.00 | 0.06 | 0.06 | 71 | 1026.4 |
| 20260905150007 | 66 | 172 | 0.0 | 4.0 | 0.00 | 0.06 | 0.06 | 71 | 1026.4 |
| 20260905145507 | 66 | 174 | 0.0 | 3.0 | 0.00 | 0.06 | 0.06 | 70 | 1026.5 |
| 20260905145006 | 65 | 289 | 0.0 | 3.0 | 0.00 | 0.06 | 0.06 | 69 | 1026.4 |
| 20260905144518 | 65 | 289 | 1.0 | 3.0 | 0.00 | 0.06 | 0.06 | 72 | 1026.4 |
| 20260905144006 | 65 | 291 | 0.0 | 2.0 | 0.00 | 0.06 | 0.06 | 72 | 1026.4 |
| 20260905143607 | 64 | 291 | 0.0 | 2.0 | 0.00 | 0.06 | 0.06 | 73 | 1026.4 |
| 20260905143006 | 64 | 291 | 0.0 | 11.0 | 0.00 | 0.06 | 0.06 | 74 | 1026.6 |
| 20260905142508 | 64 | 291 | 6.0 | 11.0 | 0.00 | 0.06 | 0.06 | 72 | 1026.6 |
| 20260905142005 | 64 | 299 | 0.0 | 6.0 | 0.00 | 0.06 | 0.06 | 75 | 1026.6 |
| 20260905141505 | 64 | 183 | 1.0 | 6.0 | 0.00 | 0.06 | 0.06 | 76 | 1026.4 |
| 20260905141004 | 64 | 161 | 3.0 | 10.0 | 0.00 | 0.06 | 0.06 | 76 | 1026.5 |
| 20260905140506 | 64 | 270 | 4.0 | 10.0 | 0.00 | 0.06 | 0.06 | 76 | 1026.5 |
| 20260905140004 | 64 | 280 | 2.0 | 9.0 | 0.00 | 0.06 | 0.06 | 78 | 1026.8 |
| 20260905135503 | 63 | 299 | 4.0 | 9.0 | 0.00 | 0.06 | 0.06 | 77 | 1026.6 |
| 20260905135002 | 63 | 309 | 0.0 | 5.0 | 0.00 | 0.06 | 0.06 | 79 | 1026.5 |
| 20260905134501 | 63 | 168 | 0.0 | 5.0 | 0.00 | 0.06 | 0.06 | 81 | 1026.3 |
| 20260905134002 | 63 | 151 | 1.0 | 8.0 | 0.00 | 0.06 | 0.06 | 80 | 1026.2 |
| 20260905133602 | 63 | 137 | 3.0 | 12.0 | 0.00 | 0.06 | 0.06 | 79 | 1026.2 |
| 20260905133104 | 63 | 287 | 3.0 | 12.0 | 0.00 | 0.06 | 0.06 | 81 | 1025.8 |
| 20260905132559 | 63 | 314 | 6.0 | 12.0 | 0.00 | 0.06 | 0.06 | 78 | 1025.8 |
| 20260905132058 | 64 | 277 | 7.0 | 18.0 | 0.00 | 0.06 | 0.06 | 76 | 1025.9 |
| 20260905131557 | 64 | 286 | 11.0 | 19.0 | 0.00 | 0.06 | 0.06 | 73 | 1025.7 |
| 20260905131058 | 65 | 297 | 10.0 | 21.0 | 0.00 | 0.06 | 0.06 | 73 | 1025.6 |
| 20260905130556 | 65 | 304 | 9.0 | 25.0 | 0.00 | 0.06 | 0.06 | 73 | 1025.6 |
| 20260905130055 | 66 | 323 | 15.0 | 25.0 | 0.00 | 0.06 | 0.06 | 71 | 1025.4 |
| 20260905125554 | 66 | 278 | 1.0 | 14.0 | 0.00 | 0.06 | 0.06 | 72 | 1025.2 |
| 20260905125056 | 66 | 320 | 0.0 | 0.0 | 0.00 | 0.06 | 0.06 | 72 | 1025.2 |
| 20260905124554 | 67 | 290 | 0.0 | 0.0 | 0.00 | 0.06 | 0.06 | 72 | 1025.0 |
| 20260905124054 | 67 | 276 | 0.0 | 19.0 | 0.00 | 0.06 | 0.06 | 72 | 1025.0 |
| 20260905123554 | 67 | 334 | 1.0 | 19.0 | 0.00 | 0.06 | 0.06 | 71 | 1024.7 |
| 20260905123105 | 68 | 309 | 2.0 | 19.0 | 0.00 | 0.06 | 0.06 | 70 | 1024.8 |
| 20260905122555 | 68 | 314 | 10.0 | 19.0 | 0.00 | 0.06 | 0.06 | 70 | 1024.6 |
| 20260905122057 | 69 | 299 | 8.0 | 15.0 | 0.00 | 0.06 | 0.06 | 70 | 1024.5 |
| 20260905121556 | 69 | 299 | 4.0 | 15.0 | 0.00 | 0.06 | 0.06 | 67 | 1024.5 |
| 20260905121053 | 70 | 309 | 0.0 | 14.0 | 0.00 | 0.06 | 0.06 | 69 | 1024.3 |
| 20260905120553 | 70 | 281 | 7.0 | 14.0 | 0.00 | 0.06 | 0.06 | 71 | 1024.3 |
| 20260905120057 | 70 | 304 | 6.0 | 12.0 | 0.00 | 0.06 | 0.06 | 71 | 1024.4 |
| 20260905115551 | 69 | 266 | 6.0 | 13.0 | 0.00 | 0.06 | 0.06 | 70 | 1024.5 |
| 20260905115053 | 69 | 287 | 1.0 | 13.0 | 0.00 | 0.06 | 0.06 | 71 | 1024.4 |
| 20260905114559 | 69 | 328 | 1.0 | 3.0 | 0.00 | 0.06 | 0.06 | 75 | 1024.5 |
| 20260905114049 | 69 | 131 | 0.0 | 0.0 | 0.00 | 0.06 | 0.06 | 78 | 1024.5 |
| 20260905113548 | 68 | 128 | 0.0 | 1.0 | 0.00 | 0.06 | 0.06 | 77 | 1024.6 |
| 20260905113049 | 67 | 122 | 0.0 | 2.0 | 0.00 | 0.06 | 0.06 | 76 | 1024.6 |
| 20260905112547 | 66 | 112 | 0.0 | 2.0 | 0.00 | 0.06 | 0.06 | 77 | 1024.6 |
| 20260905112047 | 66 | 117 | 0.0 | 3.0 | 0.00 | 0.06 | 0.06 | 80 | 1024.7 |
| 20260905111545 | 66 | 139 | 0.0 | 3.0 | 0.00 | 0.06 | 0.06 | 78 | 1024.7 |
| 20260905111046 | 65 | 309 | 0.0 | 3.0 | 0.00 | 0.06 | 0.06 | 80 | 1024.7 |
| 20260905110545 | 65 | 309 | 0.0 | 4.0 | 0.00 | 0.06 | 0.06 | 80 | 1024.9 |
| 20260905110046 | 65 | 309 | 0.0 | 4.0 | 0.00 | 0.06 | 0.06 | 81 | 1024.9 |
| 20260905105547 | 65 | 304 | 0.0 | 4.0 | 0.00 | 0.06 | 0.06 | 80 | 1024.9 |
| 20260905105044 | 65 | 304 | 2.0 | 4.0 | 0.00 | 0.06 | 0.06 | 78 | 1025.0 |
| 20260905104547 | 65 | 139 | 0.0 | 0.0 | 0.00 | 0.06 | 0.06 | 77 | 1025.0 |
| 20260905104044 | 64 | 139 | 0.0 | 0.0 | 0.00 | 0.06 | 0.06 | 77 | 1024.9 |
| 20260905103545 | 64 | 139 | 0.0 | 2.0 | 0.00 | 0.06 | 0.06 | 76 | 1024.9 |
| 20260905103045 | 64 | 139 | 0.0 | 5.0 | 0.00 | 0.06 | 0.06 | 79 | 1025.0 |
| 20260905102544 | 64 | 139 | 1.0 | 5.0 | 0.00 | 0.06 | 0.06 | 78 | 1025.0 |
| 20260905102043 | 64 | 112 | 0.0 | 3.0 | 0.00 | 0.06 | 0.06 | 82 | 1025.1 |
| 20260905101554 | 63 | 109 | 1.0 | 5.0 | 0.00 | 0.06 | 0.06 | 83 | 1025.1 |
| 20260905101041 | 62 | 120 | 1.0 | 4.0 | 0.00 | 0.06 | 0.06 | 83 | 1025.1 |
| 20260905100542 | 62 | 142 | 1.0 | 4.0 | 0.00 | 0.06 | 0.06 | 83 | 1025.2 |
| 20260905100111 | 62 | 142 | 1.0 | 3.0 | 0.00 | 0.06 | 0.06 | 84 | 1025.1 |
| 20260905095540 | 62 | 142 | 0.0 | 3.0 | 0.00 | 0.06 | 0.06 | 83 | 1025.1 |
| 20260905095040 | 62 | 274 | 0.0 | 3.0 | 0.00 | 0.06 | 0.06 | 84 | 1025.0 |
| 20260905094547 | 61 | 129 | 0.0 | 2.0 | 0.00 | 0.06 | 0.06 | 85 | 1025.1 |
| 20260905094039 | 61 | 131 | 0.0 | 4.0 | 0.00 | 0.06 | 0.06 | 84 | 1025.2 |
| 20260905093539 | 61 | 131 | 1.0 | 4.0 | 0.00 | 0.06 | 0.06 | 85 | 1025.2 |
| 20260905093039 | 60 | 166 | 0.0 | 3.0 | 0.00 | 0.06 | 0.06 | 88 | 1025.2 |
| 20260905092538 | 60 | 166 | 1.0 | 3.0 | 0.00 | 0.06 | 0.06 | 89 | 1025.2 |
| 20260905092037 | 60 | 288 | 0.0 | 3.0 | 0.00 | 0.06 | 0.06 | 89 | 1025.2 |
| 20260905091550 | 60 | 288 | 0.0 | 4.0 | 0.00 | 0.06 | 0.06 | 88 | 1025.2 |
| 20260905091036 | 60 | 166 | 0.0 | 0.0 | 0.00 | 0.06 | 0.06 | 89 | 1025.3 |
| 20260905090535 | 59 | 166 | 0.0 | 0.0 | 0.00 | 0.06 | 0.06 | 87 | 1025.2 |
| 20260905090034 | 59 | 166 | 0.0 | 0.0 | 0.00 | 0.06 | 0.06 | 84 | 1025.2 |
| 20260905085534 | 59 | 166 | 0.0 | 1.0 | 0.00 | 0.06 | 0.06 | 86 | 1025.1 |
| 20260905085133 | 58 | 166 | 0.0 | 1.0 | 0.00 | 0.06 | 0.06 | 86 | 1025.0 |
| 20260905084537 | 58 | 166 | 0.0 | 2.0 | 0.00 | 0.06 | 0.06 | 86 | 1025.1 |
| 20260905084032 | 58 | 166 | 0.0 | 2.0 | 0.00 | 0.06 | 0.06 | 86 | 1025.0 |
| 20260905083533 | 58 | 166 | 0.0 | 0.0 | 0.00 | 0.06 | 0.06 | 87 | 1024.9 |
| 20260905083038 | 58 | 166 | 0.0 | 0.0 | 0.00 | 0.06 | 0.06 | 88 | 1024.9 |
| 20260905082532 | 58 | 166 | 0.0 | 0.0 | 0.00 | 0.06 | 0.06 | 88 | 1025.0 |
| 20260905082031 | 57 | 166 | 0.0 | 0.0 | 0.00 | 0.06 | 0.06 | 90 | 1025.0 |
| 20260905081531 | 57 | 166 | 0.0 | 3.0 | 0.01 | 0.06 | 0.06 | 90 | 1024.9 |
| 20260905081030 | 57 | 166 | 0.0 | 3.0 | 0.02 | 0.06 | 0.06 | 91 | 1024.8 |
| 20260905080532 | 57 | 166 | 0.0 | 0.0 | 0.03 | 0.06 | 0.06 | 90 | 1024.9 |
| 20260905080028 | 57 | 166 | 0.0 | 0.0 | 0.06 | 0.06 | 0.06 | 90 | 1024.8 |
| 20260905075528 | 57 | 167 | 0.0 | 2.0 | 0.06 | 0.06 | 0.06 | 91 | 1024.7 |
| 20260905075027 | 57 | 167 | 0.0 | 4.0 | 0.06 | 0.06 | 0.06 | 90 | 1024.7 |
| 20260905074528 | 57 | 167 | 0.0 | 4.0 | 0.06 | 0.06 | 0.06 | 91 | 1024.7 |
| 20260905074026 | 57 | 149 | 0.0 | 6.0 | 0.06 | 0.06 | 0.06 | 90 | 1024.7 |
| 20260905073525 | 57 | 157 | 0.0 | 4.0 | 0.06 | 0.06 | 0.06 | 90 | 1024.7 |
| 20260905073024 | 57 | 120 | 0.0 | 4.0 | 0.06 | 0.06 | 0.06 | 88 | 1024.5 |
| 20260905072523 | 57 | 278 | 0.0 | 0.0 | 0.06 | 0.06 | 0.06 | 87 | 1024.6 |
| 20260905072020 | 58 | 278 | 0.0 | 4.0 | 0.06 | 0.06 | 0.06 | 82 | 1024.6 |
| 20260905071520 | 58 | 278 | 1.0 | 5.0 | 0.05 | 0.05 | 0.05 | 82 | 1024.5 |
| 20260905071020 | 58 | 277 | 2.0 | 9.0 | 0.04 | 0.04 | 0.04 | 82 | 1024.5 |
| 20260905070516 | 59 | 289 | 4.0 | 13.0 | 0.02 | 0.02 | 0.02 | 78 | 1024.2 |
| 20260905070015 | 60 | 278 | 6.0 | 14.0 | 0.00 | 0.00 | 0.00 | 75 | 1024.2 |
| 20260905065513 | 60 | 314 | 6.0 | 15.0 | 0.00 | 0.00 | 0.00 | 73 | 1024.1 |
| 20260905065012 | 61 | 287 | 8.0 | 18.0 | 0.00 | 0.00 | 0.00 | 71 | 1024.0 |
| 20260905064512 | 61 | 288 | 10.0 | 18.0 | 0.00 | 0.00 | 0.00 | 70 | 1023.7 |
| 20260905064015 | 61 | 272 | 7.0 | 17.0 | 0.00 | 0.00 | 0.00 | 70 | 1023.6 |
| 20260905063509 | 61 | 285 | 8.0 | 19.0 | 0.00 | 0.00 | 0.00 | 69 | 1023.4 |
| 20260905063009 | 61 | 297 | 10.0 | 19.0 | 0.00 | 0.00 | 0.00 | 69 | 1023.2 |
| 20260905062508 | 61 | 285 | 5.0 | 17.0 | 0.00 | 0.00 | 0.00 | 69 | 1023.3 |
| 20260905062006 | 62 | 289 | 10.0 | 22.0 | 0.00 | 0.00 | 0.00 | 67 | 1023.3 |
| 20260905061505 | 62 | 231 | 12.0 | 23.0 | 0.00 | 0.00 | 0.00 | 65 | 1023.2 |
| 20260905061005 | 62 | 227 | 14.0 | 23.0 | 0.00 | 0.00 | 0.00 | 64 | 1023.3 |
| 20260905060504 | 62 | 324 | 13.0 | 22.0 | 0.00 | 0.00 | 0.00 | 64 | 1023.3 |
| 20260905060004 | 62 | 292 | 14.0 | 25.0 | 0.00 | 0.00 | 0.00 | 64 | 1023.3 |
| 20260905055502 | 62 | 291 | 11.0 | 25.0 | 0.00 | 0.00 | 0.00 | 65 | 1023.0 |
| 20260905055001 | 63 | 295 | 11.0 | 18.0 | 0.00 | 0.00 | 0.00 | 66 | 1022.9 |
| 20260905054503 | 63 | 314 | 9.0 | 18.0 | 0.00 | 0.00 | 0.00 | 65 | 1022.6 |
| 20260905054100 | 63 | 291 | 11.0 | 22.0 | 0.00 | 0.00 | 0.00 | 65 | 1022.7 |
| 20260905053559 | 63 | 245 | 12.0 | 22.0 | 0.00 | 0.00 | 0.00 | 65 | 1022.8 |
| 20260905053058 | 64 | 271 | 10.0 | 18.0 | 0.00 | 0.00 | 0.00 | 66 | 1022.5 |
| 20260905052556 | 64 | 269 | 10.0 | 22.0 | 0.00 | 0.00 | 0.00 | 66 | 1022.3 |
| 20260905052055 | 64 | 278 | 14.0 | 24.0 | 0.00 | 0.00 | 0.00 | 67 | 1022.2 |
| 20260905051554 | 65 | 286 | 14.0 | 28.0 | 0.00 | 0.00 | 0.00 | 68 | 1022.1 |
| 20260905051052 | 65 | 309 | 12.0 | 28.0 | 0.00 | 0.00 | 0.00 | 68 | 1022.1 |
| 20260905050551 | 65 | 304 | 12.0 | 24.0 | 0.00 | 0.00 | 0.00 | 68 | 1021.9 |
| 20260905050051 | 66 | 293 | 11.0 | 21.0 | 0.00 | 0.00 | 0.00 | 69 | 1021.7 |
| 20260905045549 | 67 | 279 | 12.0 | 21.0 | 0.00 | 0.00 | 0.00 | 69 | 1021.5 |
| 20260905045048 | 67 | 262 | 13.0 | 21.0 | 0.00 | 0.00 | 0.00 | 69 | 1021.1 |
| 20260905044555 | 68 | 281 | 12.0 | 20.0 | 0.00 | 0.00 | 0.00 | 70 | 1021.0 |
| 20260905044045 | 67 | 289 | 12.0 | 20.0 | 0.00 | 0.00 | 0.00 | 71 | 1021.0 |
| 20260905043545 | 66 | 309 | 5.0 | 10.0 | 0.00 | 0.00 | 0.00 | 71 | 1021.0 |
| 20260905043044 | 65 | 278 | 1.0 | 8.0 | 0.00 | 0.00 | 0.00 | 74 | 1020.9 |
| 20260905042544 | 64 | 272 | 3.0 | 6.0 | 0.00 | 0.00 | 0.00 | 75 | 1020.9 |
| 20260905042043 | 63 | 285 | 2.0 | 6.0 | 0.00 | 0.00 | 0.00 | 76 | 1020.9 |
| 20260905041543 | 63 | 345 | 0.0 | 6.0 | 0.00 | 0.00 | 0.00 | 77 | 1020.8 |
| 20260905041042 | 63 | 309 | 3.0 | 5.0 | 0.00 | 0.00 | 0.00 | 76 | 1020.6 |
| 20260905040546 | 63 | 323 | 1.0 | 5.0 | 0.00 | 0.00 | 0.00 | 77 | 1020.5 |
| 20260905040042 | 63 | 245 | 2.0 | 6.0 | 0.00 | 0.00 | 0.00 | 76 | 1020.5 |
| 20260905035541 | 64 | 255 | 1.0 | 9.0 | 0.00 | 0.00 | 0.00 | 75 | 1020.4 |
| 20260905035041 | 65 | 304 | 0.0 | 12.0 | 0.00 | 0.00 | 0.00 | 74 | 1020.3 |
| 20260905034542 | 64 | 288 | 5.0 | 12.0 | 0.00 | 0.00 | 0.00 | 71 | 1020.3 |
| 20260905034041 | 64 | 279 | 4.0 | 10.0 | 0.00 | 0.00 | 0.00 | 73 | 1020.4 |
| 20260905033540 | 64 | 270 | 2.0 | 5.0 | 0.00 | 0.00 | 0.00 | 73 | 1020.3 |
| 20260905033041 | 64 | 283 | 3.0 | 5.0 | 0.00 | 0.00 | 0.00 | 73 | 1020.2 |
| 20260905032540 | 63 | 245 | 0.0 | 0.0 | 0.00 | 0.00 | 0.00 | 74 | 1020.2 |
| 20260905032039 | 63 | 245 | 0.0 | 0.0 | 0.00 | 0.00 | 0.00 | 74 | 1020.3 |
| 20260905031544 | 63 | 245 | 0.0 | 0.0 | 0.00 | 0.00 | 0.00 | 75 | 1020.3 |
| 20260905031037 | 63 | 245 | 0.0 | 4.0 | 0.00 | 0.00 | 0.00 | 75 | 1020.3 |
| 20260905030537 | 63 | 292 | 1.0 | 5.0 | 0.00 | 0.00 | 0.00 | 74 | 1020.4 |
| 20260905030038 | 63 | 291 | 1.0 | 6.0 | 0.00 | 0.00 | 0.00 | 73 | 1020.3 |
| 20260905025536 | 64 | 304 | 3.0 | 6.0 | 0.00 | 0.00 | 0.00 | 74 | 1020.3 |
| 20260905025036 | 64 | 157 | 1.0 | 3.0 | 0.00 | 0.00 | 0.00 | 72 | 1020.2 |
| 20260905024545 | 64 | 157 | 0.0 | 3.0 | 0.00 | 0.00 | 0.00 | 72 | 1020.3 |
| 20260905024037 | 64 | 139 | 0.0 | 2.0 | 0.00 | 0.00 | 0.00 | 71 | 1020.2 |
| 20260905023535 | 64 | 139 | 0.0 | 0.0 | 0.00 | 0.00 | 0.00 | 71 | 1020.3 |
| 20260905023035 | 64 | 139 | 0.0 | 0.0 | 0.00 | 0.00 | 0.00 | 72 | 1020.4 |
| 20260905022534 | 64 | 139 | 0.0 | 0.0 | 0.00 | 0.00 | 0.00 | 73 | 1020.4 |
| 20260905022033 | 64 | 139 | 0.0 | 3.0 | 0.00 | 0.00 | 0.00 | 72 | 1020.4 |
| 20260905021533 | 65 | 139 | 0.0 | 3.0 | 0.00 | 0.00 | 0.00 | 72 | 1020.5 |
| 20260905021032 | 65 | 251 | 0.0 | 5.0 | 0.00 | 0.00 | 0.00 | 70 | 1020.4 |
| 20260905020534 | 65 | 251 | 1.0 | 5.0 | 0.00 | 0.00 | 0.00 | 71 | 1020.5 |
| 20260905020034 | 65 | 245 | 0.0 | 2.0 | 0.00 | 0.00 | 0.00 | 71 | 1020.5 |
| 20260905015532 | 65 | 245 | 0.0 | 0.0 | 0.00 | 0.00 | 0.00 | 71 | 1020.6 |
| 20260905015035 | 65 | 245 | 0.0 | 0.0 | 0.00 | 0.00 | 0.00 | 71 | 1020.5 |
| 20260905014532 | 65 | 285 | 0.0 | 0.0 | 0.00 | 0.00 | 0.00 | 71 | 1020.6 |
| 20260905014032 | 65 | 285 | 0.0 | 0.0 | 0.00 | 0.00 | 0.00 | 70 | 1020.7 |
| 20260905013532 | 65 | 285 | 0.0 | 0.0 | 0.00 | 0.00 | 0.00 | 71 | 1020.6 |
| 20260905013031 | 65 | 285 | 0.0 | 4.0 | 0.00 | 0.00 | 0.00 | 70 | 1020.6 |
| 20260905012535 | 65 | 285 | 0.0 | 4.0 | 0.00 | 0.00 | 0.00 | 70 | 1020.5 |
| 20260905012029 | 65 | 138 | 0.0 | 0.0 | 0.00 | 0.00 | 0.00 | 68 | 1020.5 |
| 20260905011529 | 66 | 138 | 0.0 | 0.0 | 0.00 | 0.00 | 0.00 | 69 | 1020.5 |
| 20260905011031 | 66 | 138 | 0.0 | 0.0 | 0.00 | 0.00 | 0.00 | 69 | 1020.5 |
| 20260905010530 | 66 | 138 | 0.0 | 0.0 | 0.00 | 0.00 | 0.00 | 70 | 1020.5 |
| 20260905010037 | 66 | 138 | 0.0 | 0.0 | 0.00 | 0.00 | 0.00 | 68 | 1020.5 |
| 20260905005532 | 65 | 138 | 0.0 | 0.0 | 0.00 | 0.00 | 0.00 | 68 | 1020.5 |
| 20260905005031 | 65 | 138 | 0.0 | 0.0 | 0.00 | 0.00 | 0.00 | 69 | 1020.5 |
| 20260905004529 | 65 | 138 | 0.0 | 0.0 | 0.00 | 0.00 | 0.00 | 70 | 1020.5 |
| 20260905004028 | 65 | 138 | 0.0 | 0.0 | 0.00 | 0.00 | 0.00 | 69 | 1020.5 |
| 20260905003533 | 65 | 138 | 0.0 | 0.0 | 0.00 | 0.00 | 0.00 | 69 | 1020.4 |
| 20260905003028 | 65 | 138 | 0.0 | 0.0 | 0.00 | 0.00 | 0.00 | 70 | 1020.5 |
| 20260905002530 | 65 | 138 | 0.0 | 0.0 | 0.00 | 0.00 | 0.00 | 70 | 1020.3 |
| 20260905002027 | 65 | 139 | 0.0 | 0.0 | 0.00 | 0.00 | 0.00 | 70 | 1020.3 |
| 20260905001527 | 65 | 139 | 0.0 | 2.0 | 0.00 | 0.00 | 0.00 | 69 | 1020.3 |
| 20260905001027 | 65 | 139 | 0.0 | 2.0 | 0.00 | 0.00 | 0.00 | 69 | 1020.3 |
| 20260905000527 | 65 | 139 | 0.0 | 2.0 | 0.00 | 0.00 | 0.00 | 70 | 1020.3 |
| 20260905000033 | 65 | 139 | 0.0 | 3.0 | 0.00 | 0.00 | 0.00 | 71 | 1020.4 |
| 20260904235527 | 66 | 213 | 0.0 | 3.0 | 0.00 | 0.00 | 0.00 | 69 | 1020.4 |
| 20260904235025 | 66 | 293 | 0.0 | 3.0 | 0.00 | 0.00 | 0.00 | 68 | 1020.3 |
| 20260904234525 | 65 | 290 | 0.0 | 0.0 | 0.00 | 0.00 | 0.00 | 69 | 1020.3 |
| 20260904234029 | 65 | 228 | 0.0 | 0.0 | 0.00 | 0.00 | 0.00 | 69 | 1020.2 |
| 20260904233526 | 65 | 228 | 0.0 | 0.0 | 0.00 | 0.00 | 0.00 | 69 | 1020.2 |
| 20260904233026 | 65 | 228 | 0.0 | 0.0 | 0.00 | 0.00 | 0.00 | 71 | 1020.2 |
| 20260904232525 | 65 | 228 | 0.0 | 4.0 | 0.00 | 0.00 | 0.00 | 72 | 1020.1 |
| 20260904232023 | 64 | 288 | 1.0 | 4.0 | 0.00 | 0.00 | 0.00 | 70 | 1020.2 |
| 20260904231523 | 65 | 227 | 0.0 | 0.0 | 0.00 | 0.00 | 0.00 | 71 | 1020.1 |
| 20260904231023 | 65 | 227 | 0.0 | 0.0 | 0.00 | 0.00 | 0.00 | 70 | 1020.1 |
| 20260904230523 | 65 | 227 | 0.0 | 0.0 | 0.00 | 0.00 | 0.00 | 70 | 1020.1 |
| 20260904230020 | 65 | 227 | 0.0 | 0.0 | 0.00 | 0.00 | 0.00 | 71 | 1020.0 |
| 20260904225522 | 65 | 227 | 0.0 | 2.0 | 0.00 | 0.00 | 0.00 | 70 | 1020.0 |
| 20260904225020 | 65 | 227 | 0.0 | 3.0 | 0.00 | 0.00 | 0.00 | 70 | 1020.0 |
| 20260904224521 | 65 | 289 | 0.0 | 3.0 | 0.00 | 0.00 | 0.00 | 70 | 1020.0 |
| 20260904224020 | 65 | 168 | 0.0 | 0.0 | 0.00 | 0.00 | 0.00 | 69 | 1020.1 |
| 20260904223519 | 65 | 168 | 0.0 | 0.0 | 0.00 | 0.00 | 0.00 | 69 | 1020.0 |
| 20260904223020 | 66 | 168 | 0.0 | 0.0 | 0.00 | 0.00 | 0.00 | 68 | 1020.0 |
| 20260904222519 | 66 | 168 | 0.0 | 0.0 | 0.00 | 0.00 | 0.00 | 67 | 1019.9 |
| 20260904222015 | 66 | 167 | 0.0 | 3.0 | 0.00 | 0.00 | 0.00 | 66 | 1019.8 |
| 20260904221515 | 67 | 167 | 0.0 | 6.0 | 0.00 | 0.00 | 0.00 | 66 | 1019.9 |
| 20260904221014 | 67 | 277 | 0.0 | 6.0 | 0.00 | 0.00 | 0.00 | 66 | 1020.0 |
| 20260904220514 | 67 | 148 | 0.0 | 3.0 | 0.00 | 0.00 | 0.00 | 66 | 1020.0 |